{"data":{"norad_id":64048,"intl_designator":"2025-103A","name":"TIANYI A","alt_names":[],"object_type":"PAYLOAD","status":"ACTIVE","operator":null,"country":"PRC","launch_date":"2025-05-17","launch_site_code":"JSC","launch_vehicle":null,"mission":null,"orbit_class":"UNKNOWN","rcs_meters":null,"size_class":null,"mass_kg":null,"dimensions":null,"purposes":[],"wikipedia_slug":null,"has_3d_model":false,"image_url":null,"decayed_at":null,"tle_current":{"epoch":"2026-05-25T04:29:19.262400Z","epoch_age_seconds":55328,"freshness":"FRESH","line1":"1 64048U 25103A   26145.18702850  .00001264  00000+0  63287-4 0  9994","line2":"2 64048  97.4118 218.1740 0001593  89.6055 270.5362 15.19179728 56587","mean_motion":15.19179728,"eccentricity":0.0001593,"inclination_deg":97.4118,"raan_deg":218.174,"arg_perigee_deg":89.6055,"mean_anomaly_deg":270.5362,"bstar":6.3287e-5,"rev_number":5658,"period_min":94.787994696043,"perigee_km":507.22135346349,"apogee_km":509.41537814304,"semimajor_km":6886.4553658033,"source":"CELESTRAK","updated_at":"2026-05-25T13:38:04.195626Z"}}}